TimeAEST,TemperatureF,Dew PointF,Humidity,Sea Level PressureIn,VisibilityMPH,Wind Direction,Wind SpeedMPH,Gust SpeedMPH,PrecipitationIn,Events,Conditions,WindDirDegrees,DateUTC
12:00 AM,75,70,80,29.98,,ESE,21.9,,,,,110,2013-10-21 14:00:00
12:00 AM,75.2,69.8,83,29.98,-9999.0,ESE,21.9,-,N/A,,Unknown,110,2013-10-21 14:00:00
12:30 AM,75.2,69.8,83,29.98,-9999.0,ESE,20.7,-,N/A,,Unknown,120,2013-10-21 14:30:00
1:00 AM,75.2,69.8,83,29.95,-9999.0,ESE,20.7,-,N/A,,Unknown,110,2013-10-21 15:00:00
1:30 AM,75.2,69.8,83,29.95,-9999.0,ESE,19.6,-,N/A,,Unknown,120,2013-10-21 15:30:00
2:00 AM,75.2,69.8,83,29.95,-9999.0,ESE,21.9,-,N/A,,Unknown,110,2013-10-21 16:00:00
2:30 AM,75.2,69.8,83,29.95,-9999.0,ESE,19.6,-,N/A,,Unknown,120,2013-10-21 16:30:00
3:00 AM,74,70,82,29.94,,ESE,20.7,,,,,120,2013-10-21 17:00:00
3:00 AM,75.2,69.8,83,29.95,-9999.0,ESE,20.7,-,N/A,,Unknown,120,2013-10-21 17:00:00
3:30 AM,75.2,69.8,83,29.95,-9999.0,ESE,18.4,-,N/A,,Unknown,120,2013-10-21 17:30:00
4:00 AM,75.2,69.8,83,29.95,-9999.0,ESE,18.4,-,N/A,,Unknown,120,2013-10-21 18:00:00
4:30 AM,75.2,69.8,83,29.95,-9999.0,ESE,17.3,-,N/A,,Unknown,120,2013-10-21 18:30:00
5:00 AM,75.2,69.8,83,29.95,-9999.0,ESE,15.0,-,N/A,,Unknown,110,2013-10-21 19:00:00
5:30 AM,75.2,71.6,89,29.95,-9999.0,ESE,16.1,-,N/A,,Unknown,120,2013-10-21 19:30:00
6:00 AM,74,71,89,29.98,,SE,16.1,,,,,130,2013-10-21 20:00:00
6:00 AM,73.4,71.6,94,29.98,-9999.0,SE,16.1,-,N/A,,Unknown,130,2013-10-21 20:00:00
6:30 AM,73.4,69.8,88,29.98,-9999.0,East,10.4,-,N/A,,Unknown,80,2013-10-21 20:30:00
7:00 AM,77.0,69.8,78,29.98,-9999.0,East,17.3,-,N/A,,Unknown,90,2013-10-21 21:00:00
7:30 AM,78.8,69.8,74,30.01,-9999.0,East,20.7,-,N/A,,Unknown,100,2013-10-21 21:30:00
8:00 AM,77.0,69.8,78,30.01,-9999.0,East,20.7,-,N/A,,Unknown,90,2013-10-21 22:00:00
8:30 AM,78.8,71.6,78,30.01,-9999.0,East,21.9,-,N/A,,Unknown,90,2013-10-21 22:30:00
9:00 AM,78,69,66,30.02,,East,20.7,,,,,100,2013-10-21 23:00:00
9:00 AM,78.8,68.0,69,30.01,-9999.0,East,20.7,-,N/A,,Unknown,100,2013-10-21 23:00:00
9:30 AM,78.8,69.8,74,30.01,-9999.0,ESE,20.7,-,N/A,,Unknown,110,2013-10-21 23:30:00
10:00 AM,78.8,69.8,74,30.01,-9999.0,ESE,20.7,-,N/A,,Unknown,110,2013-10-22 00:00:00
10:30 AM,80.6,68.0,65,30.01,-9999.0,ESE,19.6,-,N/A,,Unknown,110,2013-10-22 00:30:00
11:00 AM,80.6,69.8,70,30.01,-9999.0,East,19.6,-,N/A,,Unknown,100,2013-10-22 01:00:00
11:30 AM,80.6,69.8,70,30.01,-9999.0,East,20.7,-,N/A,,Unknown,100,2013-10-22 01:30:00
12:00 PM,80,69,63,29.99,,East,18.4,,,,,100,2013-10-22 02:00:00
12:00 PM,80.6,69.8,70,29.98,-9999.0,East,18.4,-,N/A,,Unknown,100,2013-10-22 02:00:00
12:30 PM,80.6,69.8,70,29.98,-9999.0,East,18.4,-,N/A,,Unknown,100,2013-10-22 02:30:00
1:00 PM,78.8,68.0,69,29.98,-9999.0,East,18.4,-,N/A,,Unknown,100,2013-10-22 03:00:00
1:30 PM,80.6,69.8,70,29.95,-9999.0,East,18.4,-,N/A,,Unknown,100,2013-10-22 03:30:00
2:00 PM,78.8,69.8,74,29.95,-9999.0,East,18.4,-,N/A,,Unknown,100,2013-10-22 04:00:00
2:30 PM,78.8,69.8,74,29.92,-9999.0,East,19.6,-,N/A,,Unknown,100,2013-10-22 04:30:00
3:00 PM,79,71,69,29.94,,East,19.6,,,,,100,2013-10-22 05:00:00
3:00 PM,78.8,71.6,78,29.92,-9999.0,East,19.6,-,N/A,,Unknown,100,2013-10-22 05:00:00
3:30 PM,77.0,69.8,78,29.92,-9999.0,East,19.6,-,N/A,,Unknown,90,2013-10-22 05:30:00
4:00 PM,77.0,69.8,78,29.92,-9999.0,East,21.9,-,N/A,,Unknown,90,2013-10-22 06:00:00
4:30 PM,77.0,69.8,78,29.92,-9999.0,East,20.7,-,N/A,,Unknown,100,2013-10-22 06:30:00
5:00 PM,77.0,68.0,74,29.95,-9999.0,East,20.7,-,N/A,,Unknown,90,2013-10-22 07:00:00
5:30 PM,77.0,69.8,78,29.95,-9999.0,East,20.7,-,N/A,,Unknown,100,2013-10-22 07:30:00
6:00 PM,76,70,77,29.96,,East,19.6,,,,,100,2013-10-22 08:00:00
6:00 PM,77.0,69.8,78,29.95,-9999.0,East,19.6,-,N/A,,Unknown,100,2013-10-22 08:00:00
6:30 PM,75.2,69.8,83,29.95,-9999.0,East,20.7,-,N/A,,Unknown,90,2013-10-22 08:30:00
7:00 PM,75.2,69.8,83,29.95,-9999.0,East,19.6,-,N/A,,Unknown,90,2013-10-22 09:00:00
7:30 PM,75.2,68.0,78,29.98,-9999.0,East,18.4,-,N/A,,Unknown,90,2013-10-22 09:30:00
8:00 PM,75.2,69.8,83,29.98,-9999.0,East,17.3,-,N/A,,Unknown,90,2013-10-22 10:00:00
8:30 PM,75.2,69.8,83,29.98,-9999.0,East,18.4,-,N/A,,Unknown,90,2013-10-22 10:30:00
9:00 PM,75,69,77,30.00,,East,17.3,,,,,90,2013-10-22 11:00:00
9:00 PM,75.2,69.8,83,29.98,-9999.0,East,17.3,-,N/A,,Unknown,90,2013-10-22 11:00:00
9:30 PM,75.2,69.8,83,30.01,-9999.0,East,16.1,-,N/A,,Unknown,90,2013-10-22 11:30:00
10:00 PM,75.2,69.8,83,30.01,-9999.0,East,16.1,-,N/A,,Unknown,90,2013-10-22 12:00:00
10:30 PM,75.2,69.8,83,30.01,-9999.0,East,13.8,-,N/A,,Unknown,90,2013-10-22 12:30:00
11:00 PM,75.2,68.0,78,29.98,-9999.0,East,19.6,-,N/A,,Unknown,90,2013-10-22 13:00:00
11:30 PM,75.2,68.0,78,29.98,-9999.0,East,17.3,-,N/A,,Unknown,90,2013-10-22 13:30:00